Tracking 19564 objects as of 20-Mar-2019
HD Live streaming from Space Station
objects crossing your sky now

SUPERBIRD A

Track SUPERBIRD A now!
SUPERBIRD A is classified as:


NORAD ID: 20040
Int'l Code: 1989-041A
Perigee: 35,890.2 km
Apogee: 35,989.5 km
Inclination: 14.9 °
Period: 1,443.6 minutes
Semi major axis: 42310 km
RCS: 4.409 m2 (large)
Launch date: June 5, 1989
Source: Japan (JPN)
Launch site: FRENCH GUIANA (FRGUI)
aabbcc
Your satellite tracking list
Your tracking list is empty




NASA's NSSDC Master Catalog

Two Line Element Set (TLE):
1 20040U 89041A   19077.60955595 -.00000254  00000-0  00000+0 0  9997
2 20040  14.9028 353.9437 0011731 348.5395 211.0108  0.99752801108032
Source of the keplerian elements: AFSPC